Regional Weather Roundup
Issued by NWS

Home | Current Version | Previous Version | Graphics & Text | Print | Product List | Glossary On
Versions: 1 2 3 4 5 6 7 8 9 10 11 12 13 14 15 16 17 18 19 20 21 22 23 24 25 26 27 28 29 30 31 32 33 34 35 36 37 38 39 40 41 42 43 44 45 46 47 48 49 50
000
ASUS43 KBIS 040110
RWRND

NORTH DAKOTA REGIONAL WEATHER ROUNDUP
NATIONAL WEATHER SERVICE BISMARCK ND
800 PM CDT FRI JUL 03 2015

NOTE: "FAIR" INDICATES FEW OR NO CLOUDS BELOW 12,000 FEET WITH NO
SIGNIFICANT WEATHER AND/OR OBSTRUCTIONS TO VISIBILITY.


NDZ001>003-009>011-017-040200-
NORTHWEST NORTH DAKOTA

CITY           SKY/WX    TMP DP  RH WIND       PRES   REMARKS
WILLISTON      MOSUNNY   85  58  39 S7        29.85F
MINOT          CLOUDY    78  64  61 SE8       29.86F HAZE
MINOT AFB      SUNNY     80  74  82 SE8       29.85F
$$

NDZ018>021-031>035-040>046-040200-
SOUTHWEST NORTH DAKOTA

CITY           SKY/WX    TMP DP  RH WIND       PRES   REMARKS
BISMARCK       PTSUNNY   78  64  61 SE7       29.91F HAZE
DICKINSON      SUNNY     77  64  64 SE10      29.90F
GARRISON         N/A     77  67  71 SE7       29.89F
HETTINGER ARPT SUNNY     78  62  57 SE10      29.93F HAZE
$$

NDZ004>008-012>016-024-026-027-054-040200-
NORTHEAST NORTH DAKOTA

CITY           SKY/WX    TMP DP  RH WIND       PRES   REMARKS
GRAND FORKS    MOSUNNY   77  61  57 E3        29.89S HAZE
GRND FRKS AFB  MOSUNNY   75  63  66 E5        29.90F
DEVILS LAKE    MOSUNNY   79  57  47 E8        29.89F
$$

NDZ022-023-025-028>030-036>039-047>053-040200-
SOUTHEAST NORTH DAKOTA

CITY           SKY/WX    TMP DP  RH WIND       PRES   REMARKS
FARGO          SUNNY     77  65  66 NE5       29.89S HAZE
JAMESTOWN      CLOUDY    78  63  59 S5        29.91S HAZE
$$



USA.gov is the U.S. government's official web portal to all federal, state and local government web resources and services.